QPF
0.00 0.00 0.00 0.00 0.00 0.00 0.00 0.00 0.00 0.00 0.00 0.00 0.00 0.00 0.00 0.00 0.00 0.00 0.00 0.00 0.00 0.00 0.00 0.00 0.00 0.00 0.00 0.00 0.00 0.00 0.00 0.00 0.00 0.00 0.00 0.00 0.00 0.00 0.00 0.00 0.00 0.00 0.00 0.00 0.00 0.00 0.00 0.00 0.00
0.00 0.00 0.00 0.00 0.00 0.00 0.00 0.00 0.00 0.00 0.00 0.00 0.00 0.00 0.00 0.00 0.00 0.00 0.00 0.00 0.00 0.00 0.00 0.00 0.00 0.00 0.00 0.00 0.00 0.00 0.00 0.00 0.00 0.00 0.00 0.00 0.00 0.00 0.00 0.00 0.00 0.00 0.00 0.00 0.00 0.00 0.00 0.00 0.00
0.00 0.00 0.00 0.00 0.00 0.00 0.00 0.00 0.00 0.00 0.00 0.00 0.00 0.00 0.00 0.00 0.00 0.00 0.00 0.00 0.00 0.00 0.00 0.00 0.00 0.00 0.00 0.00 0.00 0.00 0.00 0.00 0.00 0.00 0.00 0.00 0.00 0.00 0.00 0.00 0.00 0.00 0.00 0.00 0.00 0.00 0.00 0.00 0.00
0.00 0.00 0.00 0.00 0.00 0.00 0.00 0.00 0.00 0.00 0.00 0.00 0.00 0.00 0.00 0.00 0.00 0.00 0.00 0.00 0.00 0.00 0.00 0.00 0.00 0.00 0.00 0.00 0.00 0.00 0.00 0.00 0.00 0.00 0.00 0.00 0.00 0.00 0.00 0.00 0.00 0.00 0.00 0.00 0.00 0.00 0.00 0.00 0.00
0.00 0.00 0.00 0.00 0.00 0.00 0.00 0.00 0.00 0.00 0.00 0.00 0.00 0.00 0.00 0.00 0.00 0.00 0.00 0.00 0.00 0.00 0.00 0.00 0.00 0.00 0.00 0.00 0.00 0.00 0.00 0.00 0.00 0.00 0.00 0.00 0.00 0.00 0.00 0.00 0.00 0.00 0.00 0.00 0.00 0.00 0.00 0.00 0.00
0.00 0.00 0.00 0.00 0.00 0.00 0.00 0.00 0.00 0.00 0.00 0.00 0.00 0.00 0.00 0.00 0.00 0.00 0.00 0.00 0.00 0.00 0.00 0.00 0.00 0.00 0.00 0.00 0.00 0.00 0.00 0.00 0.00 0.00 0.00 0.00 0.00 0.00 0.00 0.00 0.00 0.00 0.00 0.00 0.00 0.00 0.00 0.00 0.00
0.00 0.00 0.00 0.00 0.00 0.00 0.00 0.00 0.00 0.00 0.00 0.00 0.00 0.00 0.00 0.00 0.00 0.00 0.00 0.00 0.00 0.00 0.00 0.00 0.00 0.00 0.00 0.00 0.00 0.00 0.00 0.00 0.00 0.00 0.00 0.00 0.00 0.00 0.00 0.00 0.00 0.00 0.00 0.00 0.00 0.00 0.00 0.00 0.00
0.00 0.00 0.00 0.00 0.00 0.00 0.00 0.00 0.00 0.00 0.00 0.00 0.00 0.00 0.00 0.00 0.00 0.00 0.00 0.00 0.00 0.00 0.00 0.00 0.01 0.01 0.01 0.01 0.01 0.00 0.00 0.00 0.00 0.00 0.00 0.00 0.00 0.00 0.00 0.00 0.00 0.00 0.00 0.00 0.00 0.00 0.00 0.00 0.00
0.00 0.00 0.00 0.00 0.00 0.00 0.00 0.00 0.00 0.00 0.00 0.00 0.00 0.00 0.00 0.00 0.00 0.00 0.00 0.00 0.00 0.00 0.00 0.00 0.01 0.01 0.01 0.01 0.01 0.01 0.01 0.01 0.01 0.01 0.01 0.01 0.01 0.01 0.01 0.01 0.01 0.01 0.02 0.02 0.02 0.03 0.03 0.03 0.02
0.00 0.00 0.00 0.00 0.00 0.00 0.00 0.00 0.00 0.00 0.00 0.00 0.00 0.00 0.00 0.00 0.00 0.00 0.00 0.00 0.00 0.00 0.00 0.01 0.01 0.01 0.01 0.01 0.02 0.02 0.02 0.02 0.02 0.03 0.02 0.03 0.03 0.03 0.02 0.02 0.02 0.04 0.05 0.05 0.05 0.07 0.07 0.06 0.05
0.00 0.00 0.00 0.00 0.00 0.00 0.00 0.00 0.00 0.00 0.00 0.00 0.00 0.00 0.00 0.00 0.00 0.00 0.00 0.00 0.00 0.00 0.00 0.01 0.01 0.02 0.02 0.02 0.02 0.02 0.03 0.04 0.04 0.04 0.04 0.04 0.04 0.04 0.04 0.04 0.05 0.06 0.07 0.09 0.11 0.13 0.10 0.10 0.12
0.00 0.00 0.00 0.00 0.00 0.00 0.00 0.00 0.00 0.00 0.00 0.00 0.00 0.00 0.00 0.00 0.00 0.00 0.00 0.00 0.00 0.00 0.01 0.01 0.01 0.02 0.02 0.02 0.02 0.02 0.02 0.03 0.04 0.04 0.05 0.06 0.06 0.07 0.06 0.06 0.06 0.07 0.09 0.12 0.14 0.15 0.14 0.16 0.17
0.00 0.00 0.00 0.00 0.00 0.00 0.00 0.00 0.00 0.00 0.00 0.00 0.00 0.00 0.00 0.00 0.00 0.00 0.00 0.00 0.01 0.01 0.02 0.02 0.02 0.03 0.03 0.03 0.02 0.02 0.02 0.04 0.05 0.06 0.07 0.08 0.08 0.07 0.08 0.09 0.11 0.11 0.12 0.13 0.15 0.16 0.17 0.17 0.17
0.00 0.00 0.00 0.00 0.00 0.00 0.00 0.00 0.00 0.00 0.00 0.00 0.00 0.00 0.00 0.00 0.01 0.01 0.00 0.00 0.01 0.03 0.06 0.06 0.07 0.07 0.06 0.05 0.05 0.07 0.07 0.09 0.11 0.10 0.10 0.12 0.12 0.14 0.15 0.15 0.16 0.15 0.14 0.14 0.16 0.17 0.20 0.18 0.19
0.00 0.00 0.00 0.00 0.00 0.00 0.00 0.00 0.00 0.00 0.00 0.00 0.00 0.00 0.00 0.00 0.01 0.00 0.00 0.01 0.02 0.05 0.08 0.09 0.09 0.08 0.08 0.08 0.09 0.11 0.11 0.14 0.18 0.17 0.17 0.16 0.15 0.17 0.17 0.14 0.15 0.16 0.14 0.14 0.15 0.18 0.21 0.17 0.16
0.00 0.00 0.00 0.00 0.00 0.00 0.00 0.00 0.00 0.00 0.00 0.00 0.00 0.00 0.00 0.00 0.00 0.01 0.01 0.01 0.02 0.04 0.06 0.09 0.10 0.09 0.08 0.08 0.09 0.11 0.13 0.17 0.18 0.19 0.22 0.23 0.23 0.22 0.22 0.19 0.19 0.18 0.17 0.14 0.15 0.16 0.16 0.16 0.17
0.00 0.00 0.00 0.00 0.00 0.00 0.00 0.00 0.00 0.00 0.00 0.00 0.00 0.00 0.00 0.00 0.01 0.01 0.02 0.02 0.03 0.05 0.07 0.09 0.10 0.10 0.11 0.13 0.17 0.22 0.26 0.27 0.30 0.31 0.29 0.26 0.23 0.21 0.21 0.21 0.21 0.19 0.17 0.13 0.11 0.12 0.12 0.13 0.13
0.00 0.00 0.00 0.00 0.00 0.00 0.00 0.00 0.00 0.00 0.00 0.00 0.00 0.00 0.01 0.01 0.01 0.02 0.03 0.04 0.05 0.06 0.07 0.06 0.07 0.09 0.11 0.14 0.17 0.23 0.28 0.31 0.34 0.35 0.35 0.32 0.27 0.24 0.21 0.20 0.21 0.20 0.17 0.13 0.10 0.10 0.09 0.09 0.09
0.00 0.00 0.00 0.00 0.00 0.00 0.00 0.00 0.00 0.00 0.00 0.00 0.00 0.01 0.01 0.02 0.02 0.04 0.04 0.04 0.05 0.05 0.05 0.04 0.06 0.08 0.12 0.17 0.20 0.24 0.30 0.30 0.28 0.28 0.29 0.31 0.31 0.29 0.24 0.19 0.20 0.21 0.19 0.16 0.14 0.10 0.07 0.06 0.06
0.00 0.00 0.00 0.00 0.00 0.00 0.00 0.00 0.00 0.00 0.00 0.00 0.01 0.01 0.01 0.02 0.03 0.03 0.03 0.04 0.04 0.04 0.03 0.03 0.03 0.04 0.07 0.10 0.14 0.15 0.17 0.17 0.16 0.18 0.21 0.21 0.22 0.22 0.20 0.16 0.16 0.15 0.14 0.12 0.10 0.08 0.06 0.05 0.04
0.00 0.00 0.00 0.00 0.00 0.00 0.00 0.00 0.00 0.00 0.00 0.01 0.01 0.01 0.01 0.01 0.02 0.02 0.02 0.03 0.02 0.02 0.02 0.02 0.02 0.03 0.03 0.04 0.06 0.08 0.09 0.10 0.12 0.13 0.15 0.16 0.16 0.16 0.16 0.14 0.13 0.12 0.10 0.08 0.07 0.07 0.06 0.05 0.04
0.00 0.00 0.00 0.00 0.00 0.00 0.00 0.01 0.01 0.00 0.00 0.01 0.00 0.01 0.01 0.01 0.01 0.02 0.01 0.02 0.01 0.01 0.01 0.01 0.01 0.01 0.01 0.01 0.02 0.03 0.04 0.05 0.07 0.08 0.10 0.11 0.14 0.14 0.13 0.14 0.13 0.12 0.10 0.09 0.08 0.07 0.06 0.05 0.04
0.00 0.00 0.00 0.00 0.00 0.00 0.00 0.01 0.01 0.00 0.00 0.00 0.00 0.00 0.00 0.01 0.01 0.01 0.01 0.01 0.01 0.01 0.01 0.00 0.01 0.01 0.01 0.00 0.01 0.02 0.02 0.03 0.04 0.04 0.05 0.07 0.09 0.12 0.14 0.14 0.13 0.13 0.12 0.10 0.09 0.08 0.06 0.05 0.05
0.00 0.00 0.00 0.00 0.00 0.01 0.00 0.01 0.02 0.01 0.01 0.00 0.00 0.00 0.00 0.00 0.00 0.00 0.00 0.01 0.01 0.01 0.01 0.00 0.00 0.01 0.01 0.00 0.00 0.01 0.01 0.01 0.02 0.02 0.03 0.05 0.05 0.06 0.08 0.09 0.08 0.08 0.09 0.09 0.08 0.07 0.06 0.06 0.06
0.00 0.00 0.00 0.00 0.00 0.01 0.00 0.01 0.03 0.01 0.00 0.00 0.00 0.00 0.00 0.00 0.00 0.00 0.00 0.00 0.00 0.00 0.00 0.00 0.00 0.01 0.00 0.00 0.00 0.00 0.01 0.01 0.01 0.01 0.02 0.02 0.03 0.03 0.04 0.05 0.06 0.06 0.07 0.07 0.07 0.08 0.07 0.07 0.06
0.00 0.00 0.01 0.01 0.00 0.01 0.01 0.04 0.03 0.00 0.00 0.00 0.00 0.01 0.00 0.00 0.00 0.00 0.00 0.00 0.00 0.00 0.00 0.00 0.00 0.00 0.00 0.00 0.00 0.00 0.00 0.00 0.01 0.01 0.01 0.01 0.01 0.01 0.01 0.02 0.02 0.04 0.04 0.06 0.07 0.08 0.09 0.09 0.09
0.00 0.00 0.00 0.00 0.00 0.01 0.02 0.03 0.02 0.01 0.01 0.01 0.01 0.01 0.00 0.00 0.00 0.00 0.00 0.00 0.00 0.00 0.00 0.00 0.00 0.01 0.01 0.01 0.01 0.01 0.01 0.01 0.01 0.01 0.00 0.00 0.00 0.00 0.00 0.01 0.01 0.01 0.02 0.03 0.04 0.06 0.08 0.09 0.09
0.00 0.00 0.00 0.01 0.02 0.03 0.02 0.05 0.05 0.03 0.02 0.01 0.00 0.00 0.00 0.00 0.00 0.00 0.00 0.00 0.00 0.00 0.00 0.00 0.00 0.00 0.01 0.00 0.00 0.00 0.00 0.00 0.00 0.00 0.00 0.00 0.00 0.00 0.00 0.00 0.00 0.00 0.01 0.01 0.02 0.03 0.05 0.07 0.08
0.00 0.00 0.00 0.01 0.01 0.03 0.03 0.04 0.02 0.02 0.01 0.00 0.00 0.00 0.00 0.00 0.00 0.00 0.00 0.00 0.00 0.00 0.00 0.00 0.00 0.00 0.00 0.00 0.00 0.00 0.00 0.00 0.00 0.00 0.00 0.00 0.00 0.00 0.00 0.00 0.00 0.00 0.00 0.01 0.01 0.02 0.03 0.04 0.06
0.00 0.00 0.00 0.01 0.01 0.01 0.02 0.02 0.00 0.00 0.00 0.00 0.00 0.00 0.00 0.00 0.00 0.00 0.00 0.00 0.00 0.00 0.00 0.00 0.00 0.00 0.00 0.00 0.00 0.00 0.00 0.00 0.00 0.00 0.00 0.00 0.00 0.00 0.00 0.00 0.00 0.00 0.00 0.00 0.01 0.01 0.01 0.02 0.04
MSLP
1012.22 1012.80 1013.26 1013.50 1013.44 1013.05 1012.39 1011.54 1010.65 1009.84 1009.23 1008.87 1008.74 1008.79 1008.93 1009.06 1009.11 1009.07 1008.97 1008.88 1008.88 1009.05 1009.42 1009.96 1010.63 1011.32 1011.92 1012.37 1012.64 1012.75 1012.75 1012.74 1012.80 1012.98 1013.30 1013.73 1014.20 1014.64 1015.00 1015.24 1015.36 1015.41 1015.43 1015.49 1015.61 1015.79 1016.03 1016.27 1016.47
1012.26 1012.83 1013.23 1013.36 1013.17 1012.65 1011.85 1010.89 1009.91 1009.05 1008.43 1008.08 1007.99 1008.10 1008.31 1008.51 1008.63 1008.65 1008.61 1008.57 1008.62 1008.83 1009.23 1009.82 1010.53 1011.26 1011.92 1012.42 1012.75 1012.92 1012.97 1013.01 1013.09 1013.28 1013.58 1013.96 1014.37 1014.75 1015.04 1015.21 1015.30 1015.33 1015.37 1015.47 1015.64 1015.89 1016.19 1016.48 1016.72
1012.28 1012.77 1013.07 1013.08 1012.75 1012.10 1011.20 1010.17 1009.17 1008.32 1007.73 1007.44 1007.43 1007.61 1007.88 1008.14 1008.32 1008.38 1008.38 1008.37 1008.44 1008.67 1009.10 1009.71 1010.44 1011.20 1011.90 1012.46 1012.85 1013.08 1013.20 1013.28 1013.40 1013.59 1013.87 1014.21 1014.55 1014.85 1015.07 1015.19 1015.24 1015.27 1015.33 1015.46 1015.70 1016.01 1016.36 1016.69 1016.95
1012.29 1012.68 1012.84 1012.70 1012.25 1011.50 1010.54 1009.50 1008.52 1007.74 1007.23 1007.03 1007.10 1007.36 1007.69 1008.00 1008.20 1008.30 1008.31 1008.31 1008.40 1008.63 1009.06 1009.66 1010.39 1011.16 1011.88 1012.47 1012.91 1013.19 1013.37 1013.50 1013.65 1013.85 1014.11 1014.40 1014.69 1014.92 1015.08 1015.16 1015.19 1015.23 1015.31 1015.49 1015.77 1016.13 1016.51 1016.86 1017.12
1012.32 1012.57 1012.58 1012.30 1011.73 1010.91 1009.93 1008.93 1008.03 1007.34 1006.95 1006.85 1007.01 1007.33 1007.71 1008.04 1008.27 1008.37 1008.39 1008.40 1008.48 1008.71 1009.11 1009.70 1010.41 1011.15 1011.86 1012.46 1012.91 1013.23 1013.44 1013.61 1013.78 1013.99 1014.23 1014.49 1014.74 1014.93 1015.05 1015.12 1015.15 1015.20 1015.32 1015.53 1015.84 1016.22 1016.61 1016.94 1017.17
1012.37 1012.47 1012.33 1011.91 1011.24 1010.38 1009.43 1008.49 1007.69 1007.13 1006.85 1006.85 1007.08 1007.44 1007.84 1008.18 1008.41 1008.52 1008.55 1008.56 1008.64 1008.86 1009.25 1009.80 1010.46 1011.17 1011.83 1012.40 1012.85 1013.17 1013.40 1013.58 1013.76 1013.96 1014.20 1014.44 1014.66 1014.83 1014.95 1015.02 1015.07 1015.15 1015.29 1015.53 1015.85 1016.22 1016.58 1016.88 1017.07
1012.40 1012.35 1012.05 1011.52 1010.79 1009.92 1009.02 1008.17 1007.49 1007.05 1006.87 1006.94 1007.21 1007.58 1007.97 1008.31 1008.53 1008.65 1008.69 1008.73 1008.83 1009.05 1009.42 1009.93 1010.55 1011.19 1011.80 1012.32 1012.72 1013.01 1013.23 1013.40 1013.57 1013.77 1013.99 1014.22 1014.43 1014.61 1014.73 1014.82 1014.91 1015.02 1015.19 1015.43 1015.74 1016.08 1016.40 1016.64 1016.77
1012.35 1012.15 1011.73 1011.12 1010.35 1009.51 1008.68 1007.94 1007.37 1007.02 1006.92 1007.02 1007.29 1007.64 1008.01 1008.32 1008.54 1008.67 1008.75 1008.83 1008.97 1009.22 1009.60 1010.08 1010.65 1011.23 1011.76 1012.21 1012.55 1012.79 1012.97 1013.11 1013.26 1013.44 1013.64 1013.86 1014.07 1014.25 1014.40 1014.52 1014.63 1014.78 1014.97 1015.21 1015.50 1015.79 1016.05 1016.22 1016.29
1012.16 1011.84 1011.33 1010.68 1009.93 1009.14 1008.41 1007.78 1007.30 1007.03 1006.96 1007.06 1007.30 1007.60 1007.91 1008.19 1008.41 1008.57 1008.71 1008.86 1009.06 1009.36 1009.76 1010.24 1010.76 1011.28 1011.74 1012.11 1012.38 1012.56 1012.68 1012.78 1012.89 1013.03 1013.20 1013.40 1013.60 1013.78 1013.94 1014.09 1014.24 1014.40 1014.60 1014.84 1015.10 1015.35 1015.55 1015.66 1015.67
1011.78 1011.40 1010.85 1010.20 1009.51 1008.83 1008.20 1007.69 1007.31 1007.09 1007.02 1007.09 1007.26 1007.49 1007.74 1007.98 1008.20 1008.40 1008.61 1008.84 1009.14 1009.50 1009.94 1010.42 1010.91 1011.37 1011.76 1012.05 1012.24 1012.36 1012.41 1012.46 1012.51 1012.61 1012.74 1012.89 1013.07 1013.24 1013.40 1013.56 1013.72 1013.90 1014.11 1014.34 1014.57 1014.78 1014.94 1015.01 1014.99
1011.26 1010.85 1010.32 1009.74 1009.15 1008.60 1008.12 1007.72 1007.43 1007.25 1007.17 1007.18 1007.27 1007.41 1007.60 1007.80 1008.03 1008.27 1008.55 1008.88 1009.26 1009.69 1010.16 1010.65 1011.11 1011.52 1011.84 1012.06 1012.18 1012.22 1012.22 1012.20 1012.20 1012.22 1012.29 1012.39 1012.51 1012.65 1012.79 1012.94 1013.10 1013.29 1013.50 1013.72 1013.95 1014.14 1014.28 1014.33 1014.31
1010.66 1010.27 1009.81 1009.35 1008.91 1008.53 1008.21 1007.95 1007.75 1007.60 1007.51 1007.46 1007.46 1007.52 1007.63 1007.80 1008.02 1008.31 1008.65 1009.05 1009.50 1009.98 1010.47 1010.95 1011.38 1011.73 1011.98 1012.14 1012.20 1012.18 1012.11 1012.03 1011.95 1011.91 1011.90 1011.92 1011.97 1012.05 1012.15 1012.26 1012.41 1012.60 1012.81 1013.04 1013.27 1013.47 1013.62 1013.69 1013.68
1010.10 1009.77 1009.42 1009.11 1008.86 1008.67 1008.53 1008.42 1008.32 1008.21 1008.10 1008.00 1007.93 1007.90 1007.95 1008.08 1008.30 1008.61 1008.99 1009.43 1009.91 1010.41 1010.89 1011.33 1011.71 1012.00 1012.18 1012.27 1012.27 1012.20 1012.07 1011.93 1011.78 1011.65 1011.55 1011.49 1011.45 1011.45 1011.48 1011.56 1011.68 1011.86 1012.08 1012.33 1012.58 1012.82 1013.00 1013.12 1013.15
1009.68 1009.43 1009.23 1009.10 1009.05 1009.06 1009.11 1009.15 1009.15 1009.09 1008.98 1008.84 1008.71 1008.63 1008.62 1008.71 1008.92 1009.22 1009.60 1010.04 1010.51 1010.97 1011.41 1011.78 1012.08 1012.29 1012.40 1012.43 1012.37 1012.24 1012.06 1011.86 1011.64 1011.43 1011.24 1011.07 1010.94 1010.85 1010.81 1010.84 1010.93 1011.10 1011.33 1011.61 1011.91 1012.20 1012.44 1012.61 1012.71
1009.46 1009.31 1009.25 1009.30 1009.45 1009.66 1009.89 1010.07 1010.16 1010.16 1010.06 1009.91 1009.74 1009.62 1009.57 1009.63 1009.81 1010.08 1010.44 1010.83 1011.24 1011.62 1011.96 1012.24 1012.44 1012.55 1012.59 1012.55 1012.43 1012.26 1012.04 1011.78 1011.49 1011.21 1010.93 1010.67 1010.44 1010.27 1010.16 1010.13 1010.20 1010.36 1010.60 1010.91 1011.26 1011.61 1011.93 1012.17 1012.33
1009.44 1009.39 1009.46 1009.67 1009.99 1010.37 1010.75 1011.05 1011.24 1011.29 1011.22 1011.07 1010.89 1010.74 1010.67 1010.70 1010.84 1011.07 1011.37 1011.69 1012.00 1012.28 1012.50 1012.65 1012.74 1012.75 1012.71 1012.60 1012.44 1012.22 1011.96 1011.65 1011.31 1010.96 1010.60 1010.26 1009.96 1009.71 1009.54 1009.48 1009.52 1009.68 1009.93 1010.27 1010.66 1011.07 1011.45 1011.76 1011.98
1009.57 1009.59 1009.77 1010.11 1010.56 1011.08 1011.57 1011.97 1012.22 1012.32 1012.27 1012.14 1011.96 1011.81 1011.73 1011.74 1011.85 1012.03 1012.25 1012.48 1012.68 1012.83 1012.92 1012.95 1012.93 1012.85 1012.73 1012.57 1012.37 1012.12 1011.83 1011.48 1011.10 1010.70 1010.28 1009.88 1009.52 1009.22 1009.02 1008.92 1008.95 1009.10 1009.36 1009.72 1010.13 1010.57 1011.00 1011.36 1011.63
1009.74 1009.83 1010.08 1010.51 1011.06 1011.65 1012.22 1012.67 1012.97 1013.10 1013.08 1012.96 1012.80 1012.66 1012.58 1012.58 1012.66 1012.80 1012.95 1013.09 1013.18 1013.22 1013.19 1013.11 1012.99 1012.84 1012.66 1012.47 1012.24 1011.97 1011.66 1011.30 1010.89 1010.45 1010.00 1009.57 1009.18 1008.86 1008.63 1008.52 1008.54 1008.68 1008.94 1009.29 1009.70 1010.15 1010.58 1010.97 1011.28
1009.88 1010.00 1010.31 1010.79 1011.39 1012.03 1012.62 1013.10 1013.41 1013.55 1013.54 1013.44 1013.30 1013.18 1013.12 1013.12 1013.19 1013.28 1013.38 1013.44 1013.45 1013.39 1013.28 1013.12 1012.93 1012.74 1012.53 1012.32 1012.09 1011.83 1011.51 1011.15 1010.73 1010.29 1009.83 1009.39 1008.99 1008.67 1008.45 1008.34 1008.35 1008.47 1008.70 1009.02 1009.40 1009.81 1010.22 1010.60 1010.91
1009.91 1010.07 1010.42 1010.93 1011.55 1012.20 1012.78 1013.25 1013.55 1013.68 1013.67 1013.58 1013.46 1013.36 1013.31 1013.32 1013.38 1013.45 1013.51 1013.52 1013.47 1013.36 1013.19 1012.99 1012.78 1012.58 1012.38 1012.18 1011.96 1011.72 1011.42 1011.07 1010.67 1010.24 1009.79 1009.37 1009.00 1008.70 1008.50 1008.40 1008.40 1008.50 1008.68 1008.94 1009.25 1009.59 1009.93 1010.26 1010.55
1009.85 1010.04 1010.42 1010.96 1011.58 1012.21 1012.77 1013.20 1013.47 1013.57 1013.55 1013.45 1013.34 1013.25 1013.21 1013.23 1013.29 1013.35 1013.39 1013.38 1013.30 1013.16 1012.98 1012.78 1012.58 1012.39 1012.23 1012.06 1011.88 1011.67 1011.41 1011.09 1010.72 1010.32 1009.91 1009.53 1009.20 1008.94 1008.77 1008.68 1008.68 1008.75 1008.87 1009.05 1009.25 1009.49 1009.73 1009.98 1010.22
1009.73 1009.98 1010.40 1010.95 1011.57 1012.18 1012.71 1013.09 1013.31 1013.38 1013.33 1013.21 1013.09 1013.00 1012.97 1012.99 1013.04 1013.09 1013.12 1013.09 1013.01 1012.87 1012.70 1012.52 1012.36 1012.21 1012.09 1011.97 1011.85 1011.68 1011.46 1011.18 1010.85 1010.50 1010.14 1009.81 1009.54 1009.33 1009.20 1009.13 1009.12 1009.16 1009.22 1009.30 1009.39 1009.50 1009.63 1009.78 1009.94
1009.66 1009.96 1010.43 1011.01 1011.63 1012.22 1012.71 1013.05 1013.22 1013.24 1013.15 1013.01 1012.87 1012.76 1012.71 1012.72 1012.75 1012.79 1012.80 1012.77 1012.68 1012.55 1012.40 1012.26 1012.13 1012.04 1011.97 1011.90 1011.82 1011.70 1011.52 1011.29 1011.00 1010.70 1010.40 1010.13 1009.92 1009.77 1009.68 1009.64 1009.63 1009.63 1009.63 1009.62 1009.61 1009.60 1009.61 1009.65 1009.73
1009.70 1010.07 1010.58 1011.19 1011.83 1012.40 1012.86 1013.16 1013.28 1013.25 1013.12 1012.94 1012.77 1012.63 1012.55 1012.53 1012.53 1012.54 1012.53 1012.48 1012.38 1012.26 1012.13 1012.01 1011.92 1011.86 1011.83 1011.80 1011.75 1011.66 1011.52 1011.33 1011.09 1010.83 1010.58 1010.37 1010.22 1010.12 1010.08 1010.07 1010.07 1010.06 1010.02 1009.95 1009.85 1009.74 1009.65 1009.59 1009.59
1009.90 1010.33 1010.89 1011.53 1012.17 1012.74 1013.17 1013.42 1013.51 1013.43 1013.26 1013.05 1012.83 1012.66 1012.54 1012.47 1012.43 1012.40 1012.35 1012.26 1012.15 1012.02 1011.89 1011.77 1011.70 1011.66 1011.64 1011.63 1011.60 1011.53 1011.41 1011.23 1011.03 1010.81 1010.61 1010.45 1010.34 1010.30 1010.30 1010.33 1010.35 1010.34 1010.29 1010.18 1010.04 1009.87 1009.72 1009.59 1009.53
1010.27 1010.73 1011.33 1011.99 1012.63 1013.17 1013.57 1013.79 1013.84 1013.74 1013.53 1013.28 1013.02 1012.81 1012.65 1012.53 1012.44 1012.36 1012.26 1012.14 1011.99 1011.83 1011.68 1011.56 1011.47 1011.42 1011.39 1011.37 1011.33 1011.25 1011.13 1010.97 1010.77 1010.58 1010.41 1010.29 1010.22 1010.22 1010.27 1010.33 1010.39 1010.41 1010.37 1010.27 1010.13 1009.95 1009.78 1009.63 1009.53
1010.74 1011.24 1011.84 1012.49 1013.11 1013.62 1013.99 1014.17 1014.19 1014.05 1013.82 1013.54 1013.26 1013.02 1012.82 1012.66 1012.52 1012.39 1012.25 1012.08 1011.89 1011.69 1011.51 1011.35 1011.22 1011.14 1011.07 1011.02 1010.95 1010.85 1010.71 1010.53 1010.33 1010.14 1009.98 1009.88 1009.85 1009.88 1009.96 1010.06 1010.16 1010.22 1010.23 1010.18 1010.08 1009.94 1009.79 1009.67 1009.58
1011.28 1011.77 1012.35 1012.96 1013.53 1013.99 1014.30 1014.45 1014.43 1014.27 1014.03 1013.74 1013.45 1013.20 1012.97 1012.78 1012.62 1012.45 1012.26 1012.05 1011.82 1011.58 1011.35 1011.15 1010.98 1010.84 1010.72 1010.61 1010.49 1010.35 1010.17 1009.96 1009.74 1009.54 1009.39 1009.29 1009.26 1009.31 1009.41 1009.55 1009.69 1009.81 1009.88 1009.90 1009.87 1009.81 1009.73 1009.66 1009.61
1011.80 1012.26 1012.79 1013.33 1013.82 1014.20 1014.45 1014.54 1014.49 1014.32 1014.07 1013.80 1013.52 1013.27 1013.05 1012.85 1012.67 1012.48 1012.26 1012.03 1011.76 1011.49 1011.22 1010.97 1010.75 1010.55 1010.37 1010.20 1010.02 1009.81 1009.58 1009.34 1009.09 1008.86 1008.68 1008.57 1008.54 1008.59 1008.70 1008.86 1009.03 1009.20 1009.33 1009.43 1009.49 1009.53 1009.54 1009.56 1009.58
1012.29 1012.69 1013.14 1013.58 1013.96 1014.25 1014.41 1014.44 1014.36 1014.18 1013.95 1013.69 1013.45 1013.22 1013.02 1012.84 1012.66 1012.47 1012.25 1011.99 1011.71 1011.41 1011.11 1010.82 1010.55 1010.30 1010.06 1009.82 1009.57 1009.31 1009.02 1008.72 1008.43 1008.18 1007.97 1007.83 1007.78 1007.81 1007.92 1008.07 1008.26 1008.46 1008.65 1008.81 1008.96 1009.08 1009.19 1009.30 1009.42
Thickness
5828 5830 5831 5824 5813 5816 5826 5838 5847 5849 5854 5863 5864 5859 5853 5848 5840 5832 5851 5860 5856 5850 5839 5827 5821 5817 5813 5810 5807 5804 5801 5798 5794 5791 5787 5784 5781 5779 5776 5774 5771 5769 5768 5766 5764 5763 5761 5759 5758
5834 5833 5826 5819 5813 5825 5829 5843 5844 5849 5859 5865 5863 5858 5854 5852 5854 5850 5853 5854 5852 5846 5837 5827 5819 5814 5811 5808 5805 5801 5798 5795 5792 5788 5785 5782 5780 5777 5774 5772 5770 5768 5766 5764 5762 5761 5759 5757 5756
5835 5833 5822 5820 5822 5825 5829 5844 5847 5857 5864 5862 5857 5859 5853 5848 5850 5851 5854 5852 5849 5842 5835 5825 5816 5812 5808 5805 5802 5799 5796 5792 5789 5786 5783 5780 5778 5775 5773 5771 5768 5766 5764 5762 5761 5759 5757 5756 5754
5831 5824 5823 5821 5827 5837 5840 5849 5855 5856 5860 5862 5858 5853 5855 5854 5854 5854 5852 5850 5844 5838 5832 5822 5813 5808 5805 5801 5798 5795 5792 5789 5786 5783 5780 5778 5776 5773 5771 5769 5767 5765 5763 5761 5759 5757 5755 5754 5752
5830 5825 5822 5827 5833 5842 5851 5856 5859 5854 5853 5858 5857 5849 5847 5852 5856 5853 5849 5845 5840 5836 5830 5819 5810 5805 5801 5798 5795 5792 5789 5786 5783 5780 5777 5775 5773 5770 5768 5767 5765 5763 5761 5759 5757 5755 5753 5751 5750
5823 5826 5820 5826 5833 5841 5851 5858 5858 5854 5854 5856 5855 5849 5845 5850 5850 5848 5847 5842 5840 5834 5829 5817 5806 5802 5798 5794 5791 5788 5785 5782 5779 5777 5774 5772 5770 5768 5766 5764 5762 5760 5758 5756 5754 5753 5751 5749 5748
5819 5821 5820 5825 5829 5835 5844 5857 5854 5851 5849 5855 5859 5848 5843 5845 5847 5846 5842 5839 5838 5833 5826 5816 5807 5800 5795 5791 5787 5784 5782 5779 5776 5773 5771 5769 5767 5765 5763 5761 5760 5758 5756 5754 5752 5750 5749 5748 5746
5825 5820 5820 5826 5825 5830 5846 5853 5856 5853 5849 5860 5859 5846 5840 5842 5846 5843 5837 5834 5831 5827 5822 5816 5809 5802 5796 5791 5785 5781 5778 5775 5772 5770 5767 5765 5763 5761 5759 5758 5757 5755 5753 5752 5750 5748 5747 5746 5745
5819 5808 5813 5824 5824 5831 5844 5844 5853 5860 5853 5851 5853 5850 5851 5848 5843 5835 5827 5824 5821 5819 5817 5814 5808 5802 5797 5793 5787 5780 5775 5772 5770 5767 5765 5762 5763 5763 5760 5758 5756 5753 5751 5750 5748 5747 5746 5744 5744
5811 5805 5817 5829 5831 5832 5838 5839 5844 5845 5842 5839 5840 5841 5843 5839 5834 5826 5820 5816 5812 5810 5809 5808 5805 5799 5795 5792 5785 5781 5777 5774 5770 5769 5765 5762 5762 5761 5761 5758 5753 5751 5749 5748 5747 5746 5744 5744 5747
5811 5808 5820 5826 5832 5833 5832 5835 5841 5836 5829 5829 5828 5831 5832 5831 5827 5822 5819 5816 5811 5807 5804 5803 5799 5795 5792 5788 5784 5780 5777 5773 5769 5766 5763 5761 5759 5758 5756 5756 5753 5750 5748 5748 5749 5747 5746 5748 5748
5806 5812 5816 5821 5828 5826 5825 5828 5827 5825 5821 5828 5830 5831 5828 5825 5822 5820 5815 5812 5808 5804 5801 5799 5795 5789 5785 5783 5780 5776 5774 5771 5768 5764 5759 5758 5756 5755 5754 5752 5753 5751 5750 5749 5748 5747 5748 5747 5746
5800 5807 5815 5820 5822 5822 5821 5819 5816 5814 5819 5824 5825 5823 5820 5819 5817 5816 5813 5809 5803 5797 5795 5793 5789 5785 5780 5776 5773 5771 5767 5765 5762 5757 5755 5752 5751 5750 5750 5748 5747 5747 5747 5746 5745 5745 5746 5745 5744
5804 5806 5810 5815 5815 5815 5810 5809 5808 5802 5812 5811 5810 5809 5810 5808 5806 5805 5801 5797 5794 5791 5789 5786 5782 5778 5773 5770 5766 5763 5760 5756 5754 5752 5749 5746 5745 5744 5743 5742 5742 5743 5742 5742 5741 5743 5742 5742 5742
5801 5795 5803 5808 5808 5809 5807 5792 5789 5796 5802 5798 5796 5796 5795 5794 5793 5791 5789 5788 5787 5784 5781 5777 5774 5770 5765 5762 5759 5756 5751 5748 5746 5743 5740 5737 5736 5736 5736 5737 5737 5738 5737 5736 5736 5738 5738 5739 5740
5795 5791 5790 5797 5802 5803 5797 5781 5780 5791 5790 5784 5783 5782 5780 5779 5779 5778 5778 5777 5776 5774 5770 5767 5765 5760 5756 5752 5749 5748 5743 5739 5737 5734 5733 5731 5728 5728 5728 5730 5732 5732 5731 5732 5732 5733 5733 5734 5735
5786 5786 5787 5788 5796 5797 5793 5774 5770 5781 5778 5772 5771 5770 5769 5766 5766 5766 5767 5767 5765 5763 5759 5756 5753 5749 5746 5743 5741 5738 5735 5731 5729 5727 5725 5724 5721 5721 5721 5722 5725 5727 5728 5728 5729 5732 5730 5730 5731
5780 5784 5782 5781 5785 5787 5779 5765 5764 5768 5766 5762 5761 5759 5757 5755 5753 5755 5756 5757 5755 5753 5750 5746 5743 5740 5737 5735 5732 5729 5726 5724 5722 5720 5718 5717 5716 5715 5716 5717 5719 5720 5722 5722 5724 5724 5725 5726 5726
5782 5780 5778 5775 5779 5776 5767 5758 5756 5759 5758 5755 5753 5751 5748 5746 5747 5748 5748 5747 5745 5742 5739 5736 5732 5730 5728 5726 5723 5721 5718 5716 5715 5715 5713 5712 5711 5711 5712 5713 5714 5714 5715 5716 5718 5719 5719 5720 5722
5778 5774 5775 5771 5774 5770 5760 5754 5753 5752 5748 5748 5745 5743 5742 5740 5739 5739 5739 5738 5734 5731 5728 5725 5724 5722 5720 5718 5716 5714 5711 5711 5710 5709 5707 5706 5706 5706 5709 5707 5708 5709 5708 5709 5710 5711 5714 5716 5717
5778 5777 5775 5769 5766 5769 5761 5750 5747 5745 5746 5743 5741 5739 5737 5734 5732 5730 5729 5727 5726 5722 5719 5718 5714 5713 5711 5709 5710 5708 5705 5704 5703 5700 5699 5699 5699 5700 5700 5700 5702 5702 5703 5704 5705 5707 5705 5707 5711
5772 5782 5778 5770 5761 5762 5759 5748 5746 5745 5740 5737 5735 5733 5730 5728 5727 5724 5722 5719 5717 5715 5713 5709 5706 5703 5702 5701 5700 5698 5695 5694 5693 5692 5691 5690 5691 5692 5691 5692 5693 5694 5696 5697 5699 5702 5702 5701 5703
5775 5779 5776 5772 5765 5761 5759 5752 5746 5745 5736 5733 5731 5728 5726 5724 5721 5718 5716 5713 5711 5709 5706 5702 5698 5695 5693 5691 5690 5688 5687 5686 5686 5684 5682 5681 5682 5682 5682 5683 5684 5685 5687 5689 5691 5693 5694 5697 5698
5778 5774 5771 5770 5769 5747 5752 5746 5739 5740 5733 5730 5727 5724 5721 5719 5717 5714 5712 5709 5706 5703 5700 5696 5691 5687 5684 5681 5679 5677 5675 5673 5672 5671 5671 5671 5672 5672 5672 5673 5673 5675 5677 5679 5680 5683 5686 5689 5692
5775 5762 5749 5744 5744 5742 5750 5743 5728 5733 5733 5728 5723 5721 5719 5716 5713 5709 5706 5703 5699 5696 5692 5688 5683 5678 5675 5672 5669 5666 5664 5662 5661 5660 5661 5659 5660 5660 5660 5661 5661 5662 5664 5667 5669 5672 5676 5679 5681
5766 5761 5741 5727 5732 5743 5745 5734 5724 5730 5728 5725 5721 5718 5715 5712 5709 5704 5701 5697 5693 5689 5685 5680 5674 5669 5665 5662 5658 5655 5652 5652 5653 5651 5649 5648 5647 5648 5647 5647 5648 5650 5651 5654 5656 5660 5664 5667 5670
5760 5759 5760 5747 5745 5735 5740 5729 5722 5724 5722 5719 5716 5712 5709 5706 5703 5699 5696 5691 5687 5682 5676 5671 5665 5660 5655 5651 5648 5644 5642 5639 5638 5636 5634 5635 5635 5634 5634 5633 5634 5636 5637 5639 5642 5646 5649 5653 5657
5766 5760 5753 5742 5721 5719 5728 5722 5715 5714 5714 5714 5711 5707 5704 5700 5697 5692 5688 5683 5677 5672 5667 5662 5655 5650 5646 5641 5637 5636 5632 5628 5625 5622 5621 5620 5619 5619 5618 5619 5620 5621 5623 5625 5627 5631 5635 5638 5643
5754 5751 5746 5743 5733 5717 5711 5712 5719 5712 5709 5706 5705 5702 5697 5693 5689 5684 5679 5674 5668 5663 5657 5651 5646 5641 5636 5631 5627 5623 5619 5617 5614 5611 5609 5608 5606 5605 5605 5605 5605 5607 5608 5611 5613 5617 5620 5624 5628
5750 5742 5740 5727 5720 5721 5715 5712 5719 5713 5708 5703 5699 5695 5691 5685 5681 5676 5670 5663 5657 5651 5645 5640 5635 5630 5626 5622 5617 5613 5609 5605 5602 5600 5598 5596 5594 5592 5592 5592 5593 5594 5596 5597 5599 5602 5606 5610 5614